Northway, AK

11:56 AM AKDT on March 25, 2017 (GMT -0800)
Northway

Weather History for PAOR - January, 2012

Change the Weather History Date:

Thursday, January 5, 2012

  Actual Average Record
Temperature  
Mean Temperature -14 °F -  
Max Temperature -8 °F -12 °F 21 °F (2005)
Min Temperature -20 °F -26 °F -65 °F (1965)
Degree Days  
Heating Degree Days 79    
Moisture  
Dew Point -18 °F    
Average Humidity 77    
Maximum Humidity 82    
Minimum Humidity 71    
Precipitation  
Precipitation 0.00 in - - ()
Snow  
Snow 0.00 in - - ()
Snow Depth 13.00 in    
Sea Level Pressure  
Sea Level Pressure 29.74 in    
Wind  
Wind Speed 3 mph (South)    
Max Wind Speed 6 mph    
Max Gust Speed -    
Visibility 10 miles    
Events      
Averages and records for this station are not official NWS values.
T = Trace of Precipitation, MM = Missing Value Source: NWS Daily Summary

Daily Weather History Graph

Daily Weather History Graph

Search for Another Location

Airport or City:

Trip Planner

Search our weather history database for the weather conditions in past years. The results will help you decide how hot, cold, wet, or windy it might be!

Date:

Astronomy

Jan. 05, 2012 Rise Set
Actual Time 9:58 AM AKST 3:07 PM AKST
Civil Twilight 8:51 AM AKST 4:15 PM AKST
Nautical Twilight 7:47 AM AKST 5:18 PM AKST
Astronomical Twilight 6:51 AM AKST 6:15 PM AKST
Moon 12:13 PM AKST (1/5) 6:54 AM AKST (1/5)
Length of Visible Light 7h 24m
Length of Day
5h 09m
Waxing Gibbous, 88% of the Moon is Illuminated
Jan 5
Waxing Gibbous
Jan 8
Full
Jan 16
Last Quarter
Jan 22
New
Jan 30
First Quarter

Hourly Weather History & Observations

Time (AKST) Temp. Windchill Dew Point Humidity Pressure Visibility Wind Dir Wind Speed Gust Speed Precip Events Conditions
12:53 AM -9.9 °F -23.4 °F -16.1 °F 74% 29.62 in 10.0 mi NNW 5.8 mph - N/A   Overcast
1:45 AM -9.4 °F -20.9 °F -16.6 °F 71% 29.42 in 10.0 mi NNW 4.6 mph - N/A   Mostly Cloudy
1:53 AM -9.9 °F -19.2 °F -16.1 °F 74% 29.65 in 10.0 mi NNW 3.5 mph - N/A   Mostly Cloudy
3:53 AM -9.9 °F -19.2 °F -16.1 °F 74% 29.70 in 10.0 mi SSW 3.5 mph - N/A   Mostly Cloudy
4:53 AM -9.0 °F - -15.0 °F 75% 29.71 in 10.0 mi Calm Calm - N/A   Mostly Cloudy
5:53 AM -8.0 °F - -14.1 °F 75% 29.74 in 10.0 mi Calm Calm - N/A   Mostly Cloudy
6:53 AM -9.0 °F -20.4 °F -14.1 °F 79% 29.76 in 10.0 mi East 4.6 mph - N/A   Overcast
7:53 AM -11.0 °F -20.4 °F -16.1 °F 78% 29.78 in 10.0 mi ESE 3.5 mph - N/A   Mostly Cloudy
8:53 AM -9.9 °F -21.5 °F -15.0 °F 78% 29.79 in 10.0 mi ESE 4.6 mph - N/A   Mostly Cloudy
9:53 AM -11.9 °F -23.8 °F -17.0 °F 78% 29.81 in 10.0 mi SE 4.6 mph - N/A   Scattered Clouds
10:53 AM -13.0 °F - -18.0 °F 78% 29.83 in 10.0 mi Calm Calm - N/A   Scattered Clouds
11:53 AM -9.9 °F -21.5 °F -16.1 °F 74% 29.82 in 10.0 mi SSE 4.6 mph - N/A   Scattered Clouds
12:53 PM -11.9 °F - -17.0 °F 78% 29.83 in 10.0 mi Calm Calm - N/A   Partly Cloudy
1:53 PM -13.0 °F - -18.0 °F 78% 29.82 in 10.0 mi Calm Calm - N/A   Partly Cloudy
2:53 PM -20.0 °F - -24.0 °F 82% 29.82 in 10.0 mi Calm Calm - N/A   Partly Cloudy
3:53 PM -20.9 °F - -25.1 °F 81% 29.81 in 10.0 mi Calm Calm - N/A   Scattered Clouds
4:53 PM -20.9 °F - -26.0 °F 77% 29.79 in 10.0 mi Calm Calm - N/A   Mostly Cloudy
5:53 PM -17.0 °F - -23.1 °F 74% 29.76 in 10.0 mi Calm Calm - N/A   Overcast
6:53 PM -14.1 °F - -18.9 °F 79% 29.74 in 10.0 mi Calm Calm - N/A   Overcast
7:53 PM -11.9 °F - -17.0 °F 78% 29.73 in 10.0 mi Calm Calm - N/A   Overcast
8:53 PM -9.9 °F - -15.0 °F 78% 29.73 in 10.0 mi Calm Calm - N/A   Mostly Cloudy
9:53 PM -9.0 °F -18.2 °F -14.1 °F 79% 29.73 in 10.0 mi WSW 3.5 mph - N/A   Mostly Cloudy
10:53 PM -13.0 °F -22.7 °F -18.0 °F 78% 29.73 in 10.0 mi SW 3.5 mph - N/A   Scattered Clouds
11:53 PM -17.0 °F - -22.0 °F 78% 29.72 in 10.0 mi Calm Calm - N/A   Partly Cloudy